Total_Precipitation_Accumulation
0.00 0.01 0.04 0.09 0.18 0.32 0.29 0.06 0.01 0.01 0.00 0.00 0.00 0.00 0.00 0.00 0.02 0.06 0.01 0.00 0.00 0.00 0.00 0.00 0.00 0.00 0.00 0.00 0.00 0.01 0.01 0.01 0.01 0.01 0.01 0.01 0.00 0.00 0.00 0.00 0.00 0.00 0.01 0.01 0.01 0.01 0.00 0.00 0.00
0.00 0.01 0.04 0.08 0.21 0.55 0.39 0.05 0.01 0.01 0.00 0.00 0.00 0.00 0.00 0.00 0.00 0.00 0.00 0.00 0.00 0.00 0.00 0.00 0.00 0.00 0.01 0.00 0.00 0.01 0.01 0.01 0.01 0.01 0.01 0.01 0.01 0.00 0.00 0.00 0.00 0.01 0.01 0.01 0.00 0.00 0.00 0.00 0.00
0.00 0.00 0.02 0.04 0.13 0.32 0.28 0.05 0.01 0.00 0.00 0.00 0.00 0.00 0.00 0.00 0.00 0.00 0.00 0.00 0.00 0.00 0.00 0.00 0.00 0.00 0.01 0.01 0.01 0.01 0.01 0.01 0.01 0.01 0.01 0.01 0.01 0.01 0.01 0.01 0.01 0.01 0.01 0.00 0.00 0.00 0.00 0.00 0.00
0.00 0.00 0.00 0.01 0.07 0.15 0.12 0.07 0.04 0.02 0.01 0.00 0.00 0.00 0.00 0.00 0.00 0.00 0.00 0.00 0.00 0.00 0.00 0.00 0.00 0.00 0.01 0.01 0.00 0.00 0.01 0.01 0.01 0.01 0.01 0.02 0.02 0.02 0.01 0.01 0.01 0.01 0.01 0.00 0.00 0.00 0.00 0.00 0.00
0.00 0.00 0.00 0.01 0.05 0.11 0.13 0.12 0.06 0.03 0.01 0.01 0.00 0.01 0.01 0.00 0.00 0.00 0.00 0.00 0.00 0.00 0.00 0.00 0.00 0.01 0.01 0.01 0.00 0.01 0.01 0.01 0.01 0.01 0.01 0.01 0.02 0.02 0.02 0.01 0.01 0.01 0.01 0.01 0.01 0.00 0.00 0.00 0.00
0.00 0.00 0.00 0.01 0.04 0.09 0.13 0.11 0.08 0.06 0.02 0.01 0.00 0.01 0.00 0.00 0.00 0.00 0.00 0.00 0.00 0.00 0.00 0.00 0.01 0.01 0.01 0.01 0.01 0.01 0.01 0.01 0.01 0.01 0.01 0.01 0.01 0.01 0.01 0.01 0.01 0.02 0.02 0.01 0.00 0.00 0.00 0.00 0.00
0.00 0.00 0.00 0.01 0.04 0.07 0.08 0.10 0.08 0.05 0.02 0.01 0.00 0.01 0.03 0.01 0.00 0.00 0.00 0.00 0.00 0.00 0.00 0.00 0.01 0.01 0.01 0.01 0.01 0.01 0.01 0.01 0.01 0.01 0.01 0.01 0.01 0.01 0.01 0.01 0.01 0.01 0.03 0.03 0.02 0.01 0.01 0.01 0.01
0.00 0.00 0.00 0.00 0.02 0.04 0.03 0.04 0.06 0.05 0.03 0.01 0.01 0.01 0.07 0.04 0.00 0.00 0.00 0.00 0.00 0.00 0.00 0.01 0.01 0.01 0.01 0.01 0.01 0.01 0.01 0.01 0.01 0.01 0.01 0.01 0.01 0.01 0.02 0.02 0.02 0.02 0.03 0.04 0.04 0.04 0.04 0.06 0.07
0.00 0.00 0.00 0.00 0.00 0.01 0.01 0.02 0.03 0.03 0.04 0.02 0.02 0.02 0.03 0.01 0.00 0.00 0.00 0.00 0.00 0.01 0.01 0.01 0.01 0.02 0.02 0.01 0.01 0.02 0.02 0.02 0.01 0.02 0.01 0.01 0.01 0.06 0.11 0.16 0.20 0.16 0.14 0.11 0.09 0.11 0.12 0.13 0.08
0.00 0.00 0.00 0.00 0.00 0.00 0.00 0.00 0.01 0.01 0.03 0.06 0.08 0.08 0.05 0.01 0.00 0.00 0.00 0.00 0.00 0.01 0.01 0.02 0.02 0.02 0.02 0.02 0.02 0.02 0.02 0.03 0.02 0.04 0.10 0.12 0.15 0.15 0.08 0.23 0.30 0.30 0.34 0.28 0.27 0.43 0.33 0.18 0.11
0.00 0.00 0.00 0.00 0.00 0.00 0.00 0.00 0.00 0.00 0.03 0.13 0.24 0.24 0.11 0.03 0.01 0.00 0.00 0.01 0.01 0.01 0.02 0.02 0.03 0.04 0.04 0.04 0.03 0.03 0.04 0.11 0.11 0.11 0.19 0.31 0.30 0.19 0.09 0.12 0.26 0.39 0.50 0.41 0.51 0.68 0.41 0.35 0.44
0.00 0.00 0.00 0.00 0.00 0.00 0.00 0.00 0.00 0.00 0.01 0.11 0.34 0.32 0.10 0.04 0.03 0.03 0.01 0.01 0.02 0.04 0.05 0.06 0.05 0.05 0.06 0.07 0.07 0.05 0.07 0.13 0.16 0.24 0.30 0.43 0.44 0.31 0.23 0.21 0.23 0.37 0.50 0.68 0.67 0.68 0.66 0.70 0.68
0.00 0.00 0.00 0.00 0.00 0.00 0.00 0.00 0.00 0.00 0.00 0.01 0.10 0.18 0.09 0.03 0.03 0.03 0.04 0.03 0.05 0.10 0.15 0.19 0.19 0.18 0.20 0.22 0.20 0.14 0.15 0.17 0.19 0.31 0.40 0.53 0.64 0.55 0.55 0.53 0.46 0.37 0.51 0.76 0.90 0.89 0.93 0.92 0.91
0.00 0.00 0.00 0.00 0.00 0.00 0.00 0.00 0.00 0.00 0.00 0.00 0.03 0.08 0.10 0.07 0.09 0.11 0.11 0.13 0.14 0.21 0.34 0.45 0.50 0.54 0.53 0.46 0.42 0.36 0.31 0.32 0.33 0.46 0.60 0.78 0.89 0.99 1.08 0.97 0.89 0.69 0.69 0.80 1.04 1.08 1.20 1.07 1.03
0.00 0.00 0.00 0.00 0.00 0.00 0.00 0.00 0.00 0.00 0.00 0.00 0.01 0.02 0.06 0.10 0.13 0.17 0.20 0.21 0.29 0.45 0.58 0.69 0.86 1.01 0.98 0.88 0.77 0.67 0.61 0.62 0.71 0.85 0.95 1.16 1.35 1.48 1.50 1.31 1.07 0.97 1.11 1.19 1.08 1.05 1.25 0.96 0.85
0.00 0.00 0.00 0.01 0.01 0.00 0.00 0.02 0.02 0.01 0.00 0.01 0.01 0.02 0.05 0.09 0.13 0.17 0.24 0.37 0.61 0.82 0.93 1.09 1.25 1.30 1.37 1.32 1.24 1.14 1.06 1.09 1.10 1.09 1.09 1.22 1.44 1.49 1.50 1.18 0.88 1.02 1.27 1.35 1.25 1.16 1.18 1.08 1.08
0.00 0.00 0.01 0.03 0.02 0.01 0.01 0.02 0.02 0.02 0.01 0.01 0.03 0.06 0.09 0.13 0.20 0.28 0.42 0.71 1.04 1.33 1.62 1.87 1.99 1.90 1.93 1.94 1.85 1.71 1.57 1.40 1.26 1.22 1.15 1.09 1.09 1.16 1.25 0.96 0.83 1.02 1.17 1.18 1.12 1.18 1.25 1.12 1.15
0.02 0.02 0.04 0.06 0.04 0.03 0.04 0.02 0.02 0.02 0.02 0.04 0.06 0.09 0.12 0.19 0.32 0.47 0.71 1.06 1.40 1.77 2.24 2.58 2.60 2.41 2.15 1.94 1.70 1.64 1.55 1.46 1.37 1.29 1.17 1.05 0.98 1.00 1.17 1.05 0.94 1.07 1.13 1.04 1.15 1.22 1.25 1.06 1.02
0.02 0.02 0.06 0.07 0.04 0.02 0.01 0.01 0.03 0.04 0.06 0.06 0.07 0.11 0.17 0.26 0.44 0.66 0.99 1.32 1.65 2.02 2.49 2.69 2.63 2.20 1.74 1.56 1.37 1.28 1.18 1.14 1.18 1.19 1.15 1.10 1.00 0.99 1.12 1.03 0.93 0.93 0.94 0.89 1.02 1.10 1.08 0.87 1.03
0.01 0.02 0.05 0.06 0.02 0.00 0.00 0.01 0.02 0.03 0.03 0.04 0.06 0.12 0.22 0.38 0.64 1.03 1.47 1.69 1.65 1.91 2.39 2.44 1.99 1.54 1.26 1.11 1.00 0.89 0.87 0.87 0.85 0.82 0.80 0.78 0.79 0.84 0.91 0.88 0.80 0.75 0.77 0.76 0.83 0.93 0.93 0.79 1.01
0.02 0.03 0.05 0.06 0.02 0.01 0.01 0.08 0.11 0.05 0.04 0.06 0.09 0.16 0.28 0.50 0.82 1.16 1.50 1.59 1.49 1.70 1.74 1.45 1.16 0.90 0.71 0.61 0.57 0.60 0.57 0.56 0.51 0.46 0.46 0.52 0.57 0.58 0.57 0.59 0.63 0.67 0.67 0.68 0.73 0.88 0.97 0.82 0.83
0.03 0.02 0.01 0.01 0.01 0.04 0.07 0.21 0.32 0.25 0.12 0.11 0.15 0.24 0.30 0.37 0.52 0.75 0.94 1.07 1.14 1.15 1.00 0.82 0.70 0.59 0.53 0.53 0.47 0.53 0.47 0.42 0.38 0.33 0.34 0.38 0.41 0.41 0.40 0.43 0.53 0.60 0.65 0.69 0.64 0.68 0.81 0.85 0.76
0.01 0.01 0.00 0.01 0.02 0.06 0.15 0.29 0.41 0.48 0.35 0.27 0.31 0.32 0.29 0.25 0.29 0.41 0.46 0.53 0.60 0.61 0.56 0.46 0.53 0.60 0.55 0.52 0.46 0.42 0.36 0.31 0.28 0.31 0.34 0.39 0.41 0.41 0.38 0.37 0.39 0.49 0.57 0.63 0.64 0.66 0.70 0.75 0.73
0.01 0.01 0.02 0.06 0.10 0.24 0.29 0.31 0.48 0.52 0.47 0.42 0.37 0.29 0.24 0.21 0.26 0.30 0.28 0.25 0.25 0.26 0.25 0.25 0.32 0.41 0.41 0.41 0.40 0.37 0.34 0.32 0.29 0.28 0.30 0.32 0.36 0.38 0.38 0.38 0.39 0.41 0.43 0.46 0.53 0.58 0.62 0.66 0.67
0.02 0.03 0.10 0.29 0.40 0.46 0.32 0.28 0.42 0.45 0.50 0.53 0.36 0.23 0.17 0.16 0.18 0.21 0.21 0.18 0.16 0.14 0.13 0.12 0.14 0.23 0.27 0.29 0.32 0.32 0.32 0.31 0.29 0.25 0.25 0.26 0.26 0.31 0.35 0.37 0.41 0.46 0.47 0.47 0.49 0.54 0.61 0.66 0.69
0.03 0.03 0.05 0.07 0.11 0.15 0.16 0.32 0.40 0.37 0.42 0.34 0.18 0.10 0.08 0.09 0.09 0.11 0.11 0.10 0.09 0.08 0.07 0.06 0.06 0.08 0.09 0.13 0.17 0.19 0.22 0.23 0.25 0.31 0.29 0.25 0.24 0.27 0.33 0.39 0.42 0.44 0.50 0.53 0.59 0.63 0.68 0.72 0.73
0.03 0.03 0.03 0.03 0.03 0.07 0.16 0.32 0.30 0.27 0.30 0.19 0.10 0.05 0.04 0.05 0.05 0.05 0.05 0.05 0.04 0.04 0.04 0.04 0.04 0.04 0.05 0.05 0.08 0.10 0.14 0.18 0.24 0.30 0.28 0.24 0.24 0.23 0.24 0.31 0.42 0.43 0.46 0.53 0.62 0.67 0.72 0.77 0.82
0.03 0.03 0.02 0.03 0.04 0.05 0.11 0.32 0.43 0.36 0.31 0.17 0.08 0.04 0.03 0.03 0.03 0.03 0.03 0.03 0.03 0.02 0.02 0.02 0.03 0.03 0.03 0.03 0.03 0.05 0.11 0.19 0.26 0.30 0.26 0.23 0.21 0.20 0.20 0.24 0.31 0.35 0.38 0.46 0.59 0.67 0.74 0.85 0.93
0.04 0.04 0.03 0.04 0.05 0.05 0.07 0.20 0.22 0.25 0.20 0.11 0.06 0.04 0.01 0.01 0.01 0.01 0.01 0.01 0.01 0.01 0.01 0.02 0.02 0.02 0.02 0.02 0.03 0.07 0.16 0.21 0.27 0.42 0.40 0.25 0.19 0.17 0.16 0.17 0.18 0.20 0.23 0.31 0.47 0.67 0.79 0.90 0.94
0.05 0.05 0.04 0.05 0.05 0.04 0.06 0.14 0.10 0.11 0.09 0.06 0.04 0.02 0.01 0.01 0.00 0.00 0.00 0.01 0.01 0.01 0.01 0.01 0.02 0.02 0.02 0.02 0.02 0.05 0.15 0.20 0.23 0.30 0.33 0.26 0.21 0.17 0.15 0.14 0.13 0.12 0.14 0.23 0.38 0.56 0.71 0.86 0.97